Time,TemperatureF,DewpointF,PressureIn,WindDirection,WindDirectionDegrees,WindSpeedMPH,WindSpeedGustMPH,Humidity,HourlyPrecipIn,Conditions,Clouds,dailyrainin,SoftwareType,DateUTC
2013-02-09 00:10:00,29.3,27.0,30.20,ESE,107,4.0,10.0,92,0.00,,,0.00,weatherlink.com 1.10,2013-02-09 06:10:00,
2013-02-09 00:25:00,29.5,28.0,30.20,East,101,3.0,11.0,92,0.00,,,0.00,weatherlink.com 1.10,2013-02-09 06:25:00,
2013-02-09 00:41:00,29.6,28.0,30.20,SE,126,7.0,16.0,92,0.00,,,0.00,weatherlink.com 1.10,2013-02-09 06:41:00,
2013-02-09 00:55:00,29.5,28.0,30.19,SE,141,5.0,12.0,92,0.00,,,0.00,weatherlink.com 1.10,2013-02-09 06:55:00,
2013-02-09 01:10:00,29.4,27.0,30.19,ESE,104,4.0,11.0,92,0.00,,,0.00,weatherlink.com 1.10,2013-02-09 07:10:00,
2013-02-09 01:26:00,29.4,27.0,30.18,SE,142,3.0,11.0,92,0.00,,,0.00,weatherlink.com 1.10,2013-02-09 07:26:00,
2013-02-09 01:41:00,29.4,28.0,30.18,ESE,107,4.0,12.0,93,0.00,,,0.00,weatherlink.com 1.10,2013-02-09 07:41:00,
2013-02-09 01:56:00,29.6,28.0,30.18,SW,225,3.0,10.0,93,0.00,,,0.00,weatherlink.com 1.10,2013-02-09 07:56:00,
2013-02-09 02:11:00,29.7,28.0,30.17,SE,128,10.0,12.0,92,0.00,,,0.00,weatherlink.com 1.10,2013-02-09 08:11:00,
2013-02-09 02:26:00,29.7,28.0,30.17,ESE,122,8.0,10.0,92,0.00,,,0.00,weatherlink.com 1.10,2013-02-09 08:26:00,
2013-02-09 02:41:00,29.7,28.0,30.17,SE,133,3.0,10.0,92,0.00,,,0.00,weatherlink.com 1.10,2013-02-09 08:41:00,
2013-02-09 02:56:00,29.7,28.0,30.17,ESE,105,3.0,10.0,92,0.00,,,0.00,weatherlink.com 1.10,2013-02-09 08:56:00,
2013-02-09 03:11:00,29.7,28.0,30.16,North,350,1.0,9.0,92,0.00,,,0.00,weatherlink.com 1.10,2013-02-09 09:11:00,
2013-02-09 03:26:00,29.7,28.0,30.15,SW,225,6.0,11.0,92,0.00,,,0.00,weatherlink.com 1.10,2013-02-09 09:26:00,
2013-02-09 03:41:00,29.8,28.0,30.15,East,89,5.0,9.0,93,0.00,,,0.00,weatherlink.com 1.10,2013-02-09 09:41:00,
2013-02-09 03:56:00,29.8,28.0,30.15,SE,129,2.0,7.0,93,0.00,,,0.00,weatherlink.com 1.10,2013-02-09 09:56:00,
2013-02-09 04:11:00,29.8,28.0,30.13,SW,233,4.0,10.0,93,0.00,,,0.00,weatherlink.com 1.10,2013-02-09 10:11:00,
2013-02-09 04:26:00,29.9,28.0,30.13,SE,131,6.0,12.0,93,0.00,,,0.00,weatherlink.com 1.10,2013-02-09 10:26:00,
2013-02-09 04:41:00,29.9,28.0,30.12,East,91,5.0,10.0,93,0.00,,,0.00,weatherlink.com 1.10,2013-02-09 10:41:00,
2013-02-09 04:56:00,29.9,28.0,30.12,ENE,78,4.0,13.0,92,0.00,,,0.00,weatherlink.com 1.10,2013-02-09 10:56:00,
2013-02-09 05:11:00,30.0,28.0,30.11,ENE,63,6.0,11.0,92,0.00,,,0.00,weatherlink.com 1.10,2013-02-09 11:11:00,
2013-02-09 05:26:00,30.0,28.0,30.10,East,91,5.0,11.0,92,0.00,,,0.00,weatherlink.com 1.10,2013-02-09 11:26:00,
2013-02-09 05:41:00,30.0,28.0,30.10,SSE,150,6.0,13.0,92,0.00,,,0.00,weatherlink.com 1.10,2013-02-09 11:41:00,
2013-02-09 05:56:00,30.0,28.0,30.10,ESE,104,7.0,16.0,92,0.00,,,0.00,weatherlink.com 1.10,2013-02-09 11:56:00,
2013-02-09 06:11:00,29.9,28.0,30.10,ESE,121,2.0,11.0,92,0.00,,,0.00,weatherlink.com 1.10,2013-02-09 12:11:00,
2013-02-09 06:26:00,29.9,28.0,30.09,SSE,150,4.0,10.0,92,0.00,,,0.00,weatherlink.com 1.10,2013-02-09 12:26:00,
2013-02-09 06:41:00,29.9,28.0,30.09,ESE,105,5.0,11.0,92,0.00,,,0.00,weatherlink.com 1.10,2013-02-09 12:41:00,
2013-02-09 06:56:00,29.9,28.0,30.09,East,100,5.0,10.0,92,0.00,,,0.00,weatherlink.com 1.10,2013-02-09 12:56:00,
2013-02-09 07:11:00,30.0,28.0,30.09,SE,125,2.0,10.0,92,0.00,,,0.00,weatherlink.com 1.10,2013-02-09 13:11:00,
2013-02-09 07:26:00,29.9,28.0,30.08,ESE,118,4.0,12.0,92,0.00,,,0.00,weatherlink.com 1.10,2013-02-09 13:26:00,
2013-02-09 07:41:00,29.9,28.0,30.08,SSE,161,4.0,11.0,92,0.00,,,0.00,weatherlink.com 1.10,2013-02-09 13:41:00,
2013-02-09 07:56:00,29.9,28.0,30.09,SE,130,4.0,8.0,92,0.00,,,0.00,weatherlink.com 1.10,2013-02-09 13:56:00,
2013-02-09 08:11:00,30.0,28.0,30.08,NNE,32,2.0,7.0,92,0.00,,,0.00,weatherlink.com 1.10,2013-02-09 14:11:00,
2013-02-09 08:26:00,30.2,28.0,30.08,WSW,245,1.0,9.0,92,0.00,,,0.00,weatherlink.com 1.10,2013-02-09 14:26:00,
2013-02-09 08:41:00,30.4,28.0,30.07,SSE,149,6.0,8.0,92,0.00,,,0.00,weatherlink.com 1.10,2013-02-09 14:41:00,
2013-02-09 08:56:00,30.7,29.0,30.07,SE,138,2.0,9.0,92,0.00,,,0.00,weatherlink.com 1.10,2013-02-09 14:56:00,
2013-02-09 09:11:00,31.2,29.0,30.07,ESE,108,6.0,10.0,91,0.00,,,0.00,weatherlink.com 1.10,2013-02-09 15:11:00,
2013-02-09 09:26:00,31.8,30.0,30.06,East,83,5.0,9.0,91,0.00,,,0.00,weatherlink.com 1.10,2013-02-09 15:26:00,
2013-02-09 09:42:00,32.5,30.0,30.06,SE,126,6.0,11.0,90,0.00,,,0.00,weatherlink.com 1.10,2013-02-09 15:42:00,
2013-02-09 09:56:00,33.3,30.0,30.06,East,101,4.0,9.0,89,0.00,,,0.00,weatherlink.com 1.10,2013-02-09 15:56:00,
2013-02-09 10:12:00,34.4,31.0,30.06,South,189,4.0,9.0,88,0.00,,,0.00,weatherlink.com 1.10,2013-02-09 16:12:00,
2013-02-09 10:27:00,35.8,32.0,30.05,ESE,117,4.0,7.0,86,0.00,,,0.00,weatherlink.com 1.10,2013-02-09 16:27:00,
2013-02-09 10:42:00,37.1,32.0,30.04,ESE,120,2.0,8.0,83,0.00,,,0.00,weatherlink.com 1.10,2013-02-09 16:42:00,
2013-02-09 10:57:00,38.5,33.0,30.04,East,101,3.0,9.0,82,0.00,,,0.00,weatherlink.com 1.10,2013-02-09 16:57:00,
2013-02-09 11:12:00,39.9,34.0,30.04,East,101,3.0,10.0,79,0.00,,,0.00,weatherlink.com 1.10,2013-02-09 17:12:00,
2013-02-09 11:27:00,41.1,34.0,30.03,SSE,159,5.0,12.0,77,0.00,,,0.00,weatherlink.com 1.10,2013-02-09 17:27:00,
2013-02-09 11:42:00,41.9,35.0,30.02,SSE,151,3.0,11.0,77,0.00,,,0.00,weatherlink.com 1.10,2013-02-09 17:42:00,
2013-02-09 11:57:00,41.7,35.0,30.01,East,96,6.0,12.0,77,0.00,,,0.00,weatherlink.com 1.10,2013-02-09 17:57:00,
2013-02-09 12:12:00,41.9,35.0,30.00,South,169,8.0,10.0,77,0.00,,,0.00,weatherlink.com 1.10,2013-02-09 18:12:00,
2013-02-09 12:27:00,42.3,36.0,29.98,SW,235,5.0,11.0,77,0.00,,,0.00,weatherlink.com 1.10,2013-02-09 18:27:00,
2013-02-09 12:43:00,43.9,36.0,29.97,ESE,120,6.0,9.0,75,0.00,,,0.00,weatherlink.com 1.10,2013-02-09 18:43:00,
2013-02-09 12:57:00,44.9,37.0,29.95,SE,145,5.0,10.0,74,0.00,,,0.00,weatherlink.com 1.10,2013-02-09 18:57:00,
2013-02-09 13:12:00,46.3,38.0,29.94,ESE,121,5.0,11.0,72,0.00,,,0.00,weatherlink.com 1.10,2013-02-09 19:12:00,
2013-02-09 13:27:00,46.7,37.0,29.92,SE,136,8.0,12.0,70,0.00,,,0.00,weatherlink.com 1.10,2013-02-09 19:27:00,
2013-02-09 13:43:00,46.6,37.0,29.91,ESE,120,7.0,12.0,70,0.00,,,0.00,weatherlink.com 1.10,2013-02-09 19:43:00,
2013-02-09 13:58:00,46.5,38.0,29.89,ESE,113,8.0,11.0,71,0.00,,,0.00,weatherlink.com 1.10,2013-02-09 19:58:00,
2013-02-09 14:12:00,45.9,37.0,29.89,SE,136,7.0,12.0,72,0.00,,,0.00,weatherlink.com 1.10,2013-02-09 20:12:00,
2013-02-09 14:27:00,46.1,38.0,29.88,SE,128,4.0,13.0,73,0.00,,,0.00,weatherlink.com 1.10,2013-02-09 20:27:00,
2013-02-09 14:42:00,46.9,38.0,29.87,ESE,120,8.0,12.0,71,0.00,,,0.00,weatherlink.com 1.10,2013-02-09 20:42:00,
2013-02-09 14:57:00,47.6,38.0,29.86,ESE,120,9.0,12.0,70,0.00,,,0.00,weatherlink.com 1.10,2013-02-09 20:57:00,
2013-02-09 15:12:00,47.9,38.0,29.86,ESE,120,10.0,16.0,69,0.00,,,0.00,weatherlink.com 1.10,2013-02-09 21:12:00,
2013-02-09 15:27:00,47.8,38.0,29.85,ESE,122,6.0,14.0,69,0.00,,,0.00,weatherlink.com 1.10,2013-02-09 21:27:00,
2013-02-09 15:42:00,47.6,38.0,29.84,East,86,6.0,13.0,69,0.00,,,0.00,weatherlink.com 1.10,2013-02-09 21:42:00,
2013-02-09 15:57:00,47.5,38.0,29.83,ESE,120,5.0,12.0,70,0.00,,,0.00,weatherlink.com 1.10,2013-02-09 21:57:00,
2013-02-09 16:12:00,47.4,38.0,29.83,ESE,123,7.0,15.0,70,0.00,,,0.00,weatherlink.com 1.10,2013-02-09 22:12:00,
2013-02-09 16:28:00,46.5,38.0,29.83,SE,124,7.0,15.0,71,0.00,,,0.00,weatherlink.com 1.10,2013-02-09 22:28:00,
2013-02-09 16:43:00,46.3,37.0,29.82,SE,125,9.0,11.0,71,0.00,,,0.00,weatherlink.com 1.10,2013-02-09 22:43:00,
2013-02-09 16:57:00,46.0,37.0,29.82,ESE,104,6.0,12.0,72,0.00,,,0.00,weatherlink.com 1.10,2013-02-09 22:57:00,
2013-02-09 17:12:00,45.5,37.0,29.81,ESE,108,4.0,14.0,72,0.00,,,0.00,weatherlink.com 1.10,2013-02-09 23:12:00,
2013-02-09 17:27:00,45.0,37.0,29.81,South,181,6.0,11.0,73,0.00,,,0.00,weatherlink.com 1.10,2013-02-09 23:27:00,
2013-02-09 17:43:00,44.7,37.0,29.81,East,101,5.0,11.0,74,0.00,,,0.00,weatherlink.com 1.10,2013-02-09 23:43:00,
2013-02-09 17:58:00,44.6,37.0,29.81,ESE,123,3.0,10.0,74,0.00,,,0.00,weatherlink.com 1.10,2013-02-09 23:58:00,
2013-02-09 18:14:00,43.4,36.0,29.81,SE,145,5.0,8.0,75,0.00,,,0.00,weatherlink.com 1.10,2013-02-10 00:14:00,
2013-02-09 18:28:00,43.3,36.0,29.82,SE,132,3.0,11.0,75,0.00,,,0.00,weatherlink.com 1.10,2013-02-10 00:28:00,
2013-02-09 18:43:00,42.8,35.0,29.81,ESE,121,3.0,12.0,75,0.00,,,0.00,weatherlink.com 1.10,2013-02-10 00:43:00,
2013-02-09 18:58:00,42.3,35.0,29.80,SE,136,4.0,10.0,75,0.00,,,0.00,weatherlink.com 1.10,2013-02-10 00:58:00,
2013-02-09 19:13:00,41.7,35.0,29.79,ESE,120,6.0,13.0,76,0.00,,,0.00,weatherlink.com 1.10,2013-02-10 01:13:00,
2013-02-09 19:28:00,41.5,34.0,29.79,SE,125,5.0,14.0,76,0.00,,,0.00,weatherlink.com 1.10,2013-02-10 01:28:00,
2013-02-09 19:43:00,41.3,35.0,29.79,ESE,110,4.0,11.0,77,0.00,,,0.00,weatherlink.com 1.10,2013-02-10 01:43:00,
2013-02-09 19:58:00,40.7,34.0,29.78,SE,136,5.0,13.0,78,0.00,,,0.00,weatherlink.com 1.10,2013-02-10 01:58:00,
2013-02-09 20:13:00,40.4,34.0,29.78,ESE,115,9.0,11.0,79,0.00,,,0.00,weatherlink.com 1.10,2013-02-10 02:13:00,
2013-02-09 20:28:00,39.5,35.0,29.77,SE,125,8.0,13.0,83,0.01,,,0.01,weatherlink.com 1.10,2013-02-10 02:28:00,
2013-02-09 20:43:00,39.3,35.0,29.76,SSE,148,7.0,12.0,84,0.01,,,0.01,weatherlink.com 1.10,2013-02-10 02:43:00,
2013-02-09 20:58:00,39.0,35.0,29.75,SE,146,3.0,11.0,84,0.01,,,0.01,weatherlink.com 1.10,2013-02-10 02:58:00,
2013-02-09 21:13:00,39.1,35.0,29.75,SE,146,2.0,16.0,84,0.01,,,0.01,weatherlink.com 1.10,2013-02-10 03:13:00,
2013-02-09 21:28:00,39.2,35.0,29.75,SE,136,9.0,13.0,84,0.00,,,0.01,weatherlink.com 1.10,2013-02-10 03:28:00,
2013-02-09 21:43:00,39.2,35.0,29.73,SE,127,6.0,13.0,83,0.00,,,0.01,weatherlink.com 1.10,2013-02-10 03:43:00,
2013-02-09 21:58:00,39.1,34.0,29.72,ESE,105,9.0,18.0,83,0.00,,,0.01,weatherlink.com 1.10,2013-02-10 03:58:00,
2013-02-09 22:13:00,39.1,34.0,29.72,SE,126,4.0,14.0,83,0.00,,,0.01,weatherlink.com 1.10,2013-02-10 04:13:00,
2013-02-09 22:28:00,39.1,34.0,29.71,SE,146,6.0,11.0,83,0.00,,,0.01,weatherlink.com 1.10,2013-02-10 04:28:00,
2013-02-09 22:43:00,39.0,34.0,29.70,ESE,117,4.0,10.0,83,0.00,,,0.01,weatherlink.com 1.10,2013-02-10 04:43:00,
2013-02-09 22:58:00,39.0,34.0,29.70,SE,142,1.0,13.0,83,0.00,,,0.01,weatherlink.com 1.10,2013-02-10 04:58:00,
2013-02-09 23:13:00,39.1,34.0,29.70,ESE,123,6.0,10.0,83,0.00,,,0.01,weatherlink.com 1.10,2013-02-10 05:13:00,
2013-02-09 23:28:00,39.1,34.0,29.72,SE,136,4.0,9.0,83,0.00,,,0.01,weatherlink.com 1.10,2013-02-10 05:28:00,
2013-02-09 23:44:00,39.0,34.0,29.72,SE,125,2.0,8.0,83,0.00,,,0.01,weatherlink.com 1.10,2013-02-10 05:44:00,
2013-02-09 23:58:00,38.9,34.0,29.71,ESE,122,5.0,8.0,83,0.00,,,0.01,weatherlink.com 1.10,2013-02-10 05:58:00,